Hourly Data Report for April 15, 2017

CLYDE RIVER A
NUNAVUT

70°29'09.000" N
68°31'01.000" W
26.50 m
2400804
71090
YCY

Download Data

Hourly Data (April 2017)
Hourly Data Report for April 15, 2017
TIME
LST
Temp Definition
°C
Dew Point Definition
°C
Rel Hum Definition
%
Precip. Amount Definition
mm

Wind Dir Definition
10's deg

Wind Spd Definition
km/h
Visibility Definition
km
Stn Press Definition
kPa
Hmdx Definition


Wind Chill Definition


Weather Definition


00:00 -13.9 -15.5 88 0.0 34 21 4.0 101.84   -23 Snow
01:00 -13.9 -15.5 88 0.0 33 18 2.4 101.86   -22 Snow
02:00 -14.0 -15.7 87 0.0 33 18 4.8 101.88   -22 Snow
03:00 -14.0 -15.6 88 0.0 33 22 4.0 101.89   -23 Snow
04:00 -14.2 -15.9 87 0.0 34 22 4.0 101.93   -24 Snow
05:00 -14.2 -15.9 87 0.0 33 24 2.4 101.96   -24 Snow
06:00 -14.1 -16.0 86 0.0 33 24 2.4 101.98   -24 Snow
07:00 -14.2 -16.2 85 0.0 33 28 1.6 101.98   -25 Snow
08:00 -13.8 -15.8 85 0.0 33 26 2.0 102.00   -24 Snow
09:00 -13.7 -15.9 84 0.0 34 26 2.0 102.06   -24 Snow
10:00 -13.6 -15.9 83 0.0 33 28 2.0 102.08   -24 Snow
11:00 -13.8 -16.1 83 0.0 34 24 6.4 102.09   -23 Snow
12:00 -13.6 -16.1 82 0.0 34 22 14.5 102.12   -23 Snow
13:00 -13.6 -16.2 81 0.0 34 17 11.3 102.15   -22 Snow
14:00 -13.5 -16.0 82 0.0 34 15 16.1 102.16   -21 Snow
15:00 -13.5 -16.0 82 0.0 35 11 16.1 102.19   -20 Snow
16:00 -13.5 -15.7 84 0.0 34 9 16.1 102.21   -19 Snow
17:00 -13.7 -15.7 85 0.0 33 8 16.1 102.23   -19 Snow
18:00 -14.0 -15.9 86 0.0 35 5 16.1 102.25   -17 LegendNANA
19:00 -14.3 -16.0 87 0.0 34 4 16.1 102.27   -17 Snow
20:00 -14.6 -16.2 88 0.0   0 16.1 102.28     Snow
21:00 -14.6 -16.2 88 0.0   0 16.1 102.28     Snow
22:00 -14.6 -16.4 86 0.0 28 5 16.1 102.27   -18 Snow
23:00 -14.7 -16.4 87 0.0   0 16.1 102.26     Snow

Notes on Data Quality.

Legend

  • E = Estimated
  • M = Missing
  • NA = Not Available*
  • [empty] = Indicates an unobserved value
Date modified: